SVA179 OERK-EDDF

Flight info

Callsign SVA179
Flight time N/A
Altitude 34000
Route IVONU Z710 GAS G662 NIMAR L550 NOVPA N697 SIMSA/N0464F360 N697 MENLI L677 CVO L617 NOZ L551 ANTAR DCT RIGRO DCT DISOR DCT LONTA UL608 DOLEV/N0451F380 DCT BEDOX DCT SIMBA DCT AKINI T161 DEBHI SPESA5C
Aircraft A320/M-SDE3FGHIRWY/LB1

Departure

Time 2026-04-29 11:02
Airport King Khalid International Airport (OERK)

Arrival

Time N/A
Airport Frankfurt Main Airport (EDDF)
Time Latitude Longitude Altitude Speed Heading
2026-04-29 10:37 24.96464 46.70120 2029 ft 0 kts 203°
2026-04-29 10:54 24.96460 46.70120 2029 ft 4 kts 18°
2026-04-29 10:54 24.96485 46.70131 2032 ft 4 kts 24°
2026-04-29 10:54 24.96510 46.70143 2029 ft 4 kts 24°
2026-04-29 10:55 24.96515 46.70146 2029 ft 1 kts 23°
2026-04-29 10:55 24.96514 46.70145 2029 ft 0 kts 23°
2026-04-29 10:57 24.96518 46.70147 2034 ft 2 kts 23°
2026-04-29 10:57 24.96558 46.70164 2031 ft 12 kts 18°
2026-04-29 10:57 24.96633 46.70201 2029 ft 11 kts
2026-04-29 10:58 24.96724 46.70149 2029 ft 20 kts 331°
2026-04-29 10:58 24.96852 46.70080 2034 ft 20 kts 353°
2026-04-29 10:58 24.96938 46.70171 2029 ft 17 kts 58°
2026-04-29 10:58 24.97012 46.70266 2029 ft 16 kts 13°
2026-04-29 10:59 24.97112 46.70222 2031 ft 16 kts 333°
2026-04-29 10:59 24.97205 46.70164 2030 ft 15 kts 330°
2026-04-29 10:59 24.97295 46.70106 2030 ft 15 kts 330°
2026-04-29 10:59 24.97382 46.70051 2035 ft 14 kts 330°
2026-04-29 11:00 24.97464 46.69999 2033 ft 13 kts 330°
2026-04-29 11:00 24.97542 46.69983 2028 ft 11 kts 25°
2026-04-29 11:00 24.97586 46.70049 2031 ft 10 kts 59°
2026-04-29 11:00 24.97620 46.70113 2034 ft 9 kts 60°
2026-04-29 11:01 24.97651 46.70174 2037 ft 9 kts 60°
2026-04-29 11:01 24.97647 46.70226 2030 ft 6 kts 144°
2026-04-29 11:01 24.97640 46.70230 2034 ft 0 kts 150°
2026-04-29 11:01 24.97589 46.70263 2031 ft 35 kts 150°
2026-04-29 11:02 24.97172 46.70530 2031 ft 102 kts 150°
2026-04-29 11:02 24.96391 46.71026 2034 ft 155 kts 149°
2026-04-29 11:02 24.95328 46.71692 2151 ft 187 kts 146°
2026-04-29 11:02 24.94219 46.72385 2916 ft 181 kts 147°
2026-04-29 11:03 24.93169 46.73137 3538 ft 181 kts 139°
2026-04-29 11:03 24.92188 46.74039 3949 ft 187 kts 135°
2026-04-29 11:03 24.91188 46.75021 4257 ft 198 kts 134°
2026-04-29 11:03 24.90136 46.76049 4605 ft 207 kts 136°
2026-04-29 11:04 24.89014 46.77094 4960 ft 216 kts 136°
2026-04-29 11:04 24.87798 46.78226 5080 ft 241 kts 141°
2026-04-29 11:04 24.86284 46.79215 5285 ft 265 kts 150°
2026-04-29 11:04 24.84652 46.80172 5849 ft 270 kts 152°
2026-04-29 11:05 24.82908 46.80936 6522 ft 272 kts 171°
2026-04-29 11:05 24.81023 46.80891 7182 ft 272 kts 195°
2026-04-29 11:05 24.79329 46.79998 7872 ft 274 kts 218°
2026-04-29 11:05 24.78128 46.78377 8538 ft 277 kts 244°
2026-04-29 11:06 24.77671 46.76320 9244 ft 282 kts 267°
2026-04-29 11:06 24.78014 46.74177 9943 ft 288 kts 282°
2026-04-29 11:06 24.78584 46.72028 10277 ft 303 kts 282°
2026-04-29 11:06 24.79192 46.69715 10406 ft 324 kts 282°
2026-04-29 11:07 24.79834 46.67261 10525 ft 344 kts 282°
2026-04-29 11:07 24.80507 46.64695 10685 ft 360 kts 282°
2026-04-29 11:07 24.81213 46.62016 11149 ft 366 kts 282°
2026-04-29 11:07 24.81926 46.59314 11716 ft 368 kts 282°
2026-04-29 11:08 24.82640 46.56596 12342 ft 370 kts 282°
2026-04-29 11:08 24.83353 46.53871 12987 ft 371 kts 281°
2026-04-29 11:08 24.84063 46.51140 13615 ft 372 kts 281°
2026-04-29 11:08 24.84776 46.48399 14169 ft 373 kts 281°
2026-04-29 11:09 24.85497 46.45638 14715 ft 374 kts 281°
2026-04-29 11:09 24.86210 46.42916 15259 ft 375 kts 281°
2026-04-29 11:09 24.86934 46.40148 15783 ft 377 kts 281°
2026-04-29 11:09 24.87662 46.37359 16287 ft 380 kts 281°
2026-04-29 11:10 24.88395 46.34556 16777 ft 382 kts 281°
2026-04-29 11:10 24.89132 46.31733 17270 ft 385 kts 281°
2026-04-29 11:10 24.89869 46.28894 17780 ft 386 kts 281°
2026-04-29 11:10 24.90611 46.26038 18275 ft 388 kts 280°
2026-04-29 11:11 24.91353 46.23176 18702 ft 389 kts 280°
2026-04-29 11:11 24.92093 46.20300 19099 ft 391 kts 280°
2026-04-29 11:11 24.92835 46.17410 19486 ft 393 kts 280°
2026-04-29 11:11 24.93582 46.14498 19887 ft 395 kts 280°
2026-04-29 11:12 24.94333 46.11575 20275 ft 397 kts 280°
2026-04-29 11:12 24.95091 46.08638 20670 ft 399 kts 280°
2026-04-29 11:12 24.95853 46.05693 21038 ft 400 kts 280°
2026-04-29 11:12 24.96617 46.02737 21405 ft 402 kts 281°
2026-04-29 11:13 24.97382 45.99768 21754 ft 403 kts 281°
2026-04-29 11:13 24.98149 45.96788 22130 ft 405 kts 281°
2026-04-29 11:13 24.98918 45.93797 22479 ft 406 kts 280°
2026-04-29 11:13 24.99687 45.90796 22807 ft 408 kts 281°
2026-04-29 11:14 25.00462 45.87784 23135 ft 409 kts 281°
2026-04-29 11:14 25.01243 45.84751 23458 ft 411 kts 281°
2026-04-29 11:14 25.02021 45.81720 23732 ft 412 kts 281°
2026-04-29 11:14 25.02799 45.78672 23990 ft 413 kts 280°
2026-04-29 11:15 25.03579 45.75620 24255 ft 414 kts 280°
2026-04-29 11:15 25.04359 45.72565 24524 ft 414 kts 280°
2026-04-29 11:15 25.05138 45.69501 24759 ft 415 kts 280°
2026-04-29 11:15 25.06091 45.66473 24973 ft 423 kts 288°
2026-04-29 11:16 25.07367 45.63520 25136 ft 427 kts 289°
2026-04-29 11:16 25.08642 45.60604 25338 ft 428 kts 289°
2026-04-29 11:16 25.09942 45.57634 25531 ft 429 kts 289°
2026-04-29 11:16 25.11245 45.54660 25801 ft 429 kts 289°
2026-04-29 11:17 25.12544 45.51694 26014 ft 429 kts 289°
2026-04-29 11:17 25.13843 45.48726 26198 ft 430 kts 289°
2026-04-29 11:17 25.15142 45.45754 26386 ft 430 kts 289°
2026-04-29 11:17 25.16441 45.42773 26550 ft 431 kts 289°
2026-04-29 11:18 25.17739 45.39783 26727 ft 432 kts 288°
2026-04-29 11:18 25.19036 45.36792 26886 ft 432 kts 288°
2026-04-29 11:18 25.20333 45.33800 27049 ft 433 kts 288°
2026-04-29 11:18 25.21617 45.30841 27219 ft 432 kts 288°
2026-04-29 11:19 25.22922 45.27841 27432 ft 431 kts 288°
2026-04-29 11:19 25.24216 45.24864 27629 ft 430 kts 288°
2026-04-29 11:19 25.25512 45.21885 27829 ft 429 kts 288°
2026-04-29 11:19 25.26802 45.18915 28017 ft 429 kts 288°
2026-04-29 11:20 25.28089 45.15945 28209 ft 428 kts 288°
2026-04-29 11:20 25.29373 45.12974 28428 ft 427 kts 288°
2026-04-29 11:20 25.30646 45.10021 28641 ft 425 kts 288°
2026-04-29 11:20 25.31920 45.07064 28856 ft 424 kts 288°
2026-04-29 11:21 25.33186 45.04121 29044 ft 423 kts 288°
2026-04-29 11:21 25.34446 45.01186 29238 ft 423 kts 288°
2026-04-29 11:21 25.35707 44.98251 29404 ft 422 kts 288°
2026-04-29 11:21 25.36971 44.95320 29579 ft 422 kts 288°
2026-04-29 11:22 25.38234 44.92394 29748 ft 421 kts 288°
2026-04-29 11:22 25.39496 44.89468 29941 ft 420 kts 288°
2026-04-29 11:22 25.40738 44.86580 30106 ft 420 kts 287°
2026-04-29 11:22 25.41990 44.83666 30249 ft 419 kts 287°
2026-04-29 11:23 25.43242 44.80750 30392 ft 419 kts 287°
2026-04-29 11:23 25.44494 44.77831 30539 ft 419 kts 287°
2026-04-29 11:23 25.45742 44.74917 30674 ft 419 kts 287°
2026-04-29 11:23 25.46987 44.72006 30808 ft 419 kts 287°
2026-04-29 11:24 25.48231 44.69095 30953 ft 418 kts 287°
2026-04-29 11:24 25.49474 44.66182 31092 ft 418 kts 287°
2026-04-29 11:24 25.50719 44.63268 31229 ft 418 kts 287°
2026-04-29 11:24 25.51967 44.60361 31390 ft 418 kts 289°
2026-04-29 11:25 25.53494 44.57581 31569 ft 428 kts 298°
2026-04-29 11:25 25.55506 44.55081 31726 ft 440 kts 307°
2026-04-29 11:25 25.57750 44.52766 31881 ft 441 kts 307°
2026-04-29 11:25 25.59997 44.50457 32035 ft 441 kts 307°
2026-04-29 11:26 25.64462 44.45872 32356 ft 440 kts 307°
2026-04-29 11:26 25.66714 44.43555 32513 ft 440 kts 307°
2026-04-29 11:26 25.68956 44.41248 32716 ft 439 kts 307°
2026-04-29 11:27 25.71192 44.38946 32908 ft 437 kts 307°
2026-04-29 11:27 25.73421 44.36646 33068 ft 437 kts 307°
2026-04-29 11:27 25.75638 44.34354 33240 ft 436 kts 307°
2026-04-29 11:27 25.77853 44.32058 33422 ft 435 kts 307°
2026-04-29 11:28 25.80062 44.29765 33598 ft 434 kts 307°
2026-04-29 11:28 25.82269 44.27479 33765 ft 434 kts 307°
2026-04-29 11:28 25.83735 44.25961 33891 ft 433 kts 307°
2026-04-29 11:28 25.85949 44.23671 33966 ft 435 kts 307°
2026-04-29 11:29 25.90386 44.19079 33966 ft 435 kts 307°
2026-04-29 11:29 25.94808 44.14484 33970 ft 435 kts 307°
2026-04-29 11:30 25.99206 44.09913 33971 ft 435 kts 307°
2026-04-29 11:30 26.03628 44.05317 33970 ft 435 kts 307°
2026-04-29 11:31 26.08049 44.00707 34013 ft 435 kts 307°
2026-04-29 11:31 26.12479 43.96081 34002 ft 435 kts 307°
2026-04-29 11:32 26.16896 43.91473 33996 ft 435 kts 307°
2026-04-29 11:32 26.21315 43.86865 33992 ft 435 kts 307°
2026-04-29 11:33 26.25686 43.82281 34013 ft 434 kts 306°
2026-04-29 11:33 26.29916 43.77535 34004 ft 423 kts 298°
2026-04-29 11:34 26.33034 43.72094 33998 ft 414 kts 292°
2026-04-29 11:34 26.36042 43.66615 33992 ft 414 kts 292°
2026-04-29 11:35 26.39056 43.61132 34012 ft 414 kts 292°
2026-04-29 11:35 26.42068 43.55651 34008 ft 413 kts 292°
2026-04-29 11:36 26.45059 43.50180 34006 ft 413 kts 292°
2026-04-29 11:36 26.48041 43.44699 34004 ft 412 kts 292°
2026-04-29 11:37 26.51009 43.39266 34022 ft 412 kts 292°
2026-04-29 11:37 26.53997 43.33799 34036 ft 411 kts 291°
2026-04-29 11:38 26.56958 43.28349 34003 ft 409 kts 292°
2026-04-29 11:38 26.59917 43.22903 34000 ft 409 kts 292°
2026-04-29 11:39 26.62850 43.17505 34028 ft 409 kts 292°
2026-04-29 11:39 26.65799 43.12066 34019 ft 409 kts 291°
2026-04-29 11:40 26.68748 43.06618 34020 ft 409 kts 291°
2026-04-29 11:40 26.71702 43.01170 34043 ft 409 kts 291°
2026-04-29 11:41 26.74645 42.95730 34027 ft 408 kts 291°
2026-04-29 11:41 26.77567 42.90319 34022 ft 408 kts 291°
2026-04-29 11:42 26.80503 42.84879 34020 ft 408 kts 291°
2026-04-29 11:42 26.83431 42.79433 34017 ft 407 kts 291°
2026-04-29 11:43 26.86357 42.73991 34022 ft 408 kts 291°
2026-04-29 11:43 26.89283 42.68554 34020 ft 407 kts 291°
2026-04-29 11:44 26.92207 42.63114 34017 ft 407 kts 291°
2026-04-29 11:44 26.95124 42.57672 34048 ft 407 kts 291°
2026-04-29 11:45 26.98034 42.52223 34038 ft 407 kts 291°
2026-04-29 11:45 27.00926 42.46811 34026 ft 407 kts 291°
2026-04-29 11:46 27.03843 42.41367 34030 ft 407 kts 291°
2026-04-29 11:46 27.06752 42.35913 34052 ft 407 kts 291°
2026-04-29 11:47 27.09656 42.30461 34045 ft 407 kts 291°
2026-04-29 11:47 27.12560 42.25000 34040 ft 407 kts 291°
2026-04-29 11:48 27.15464 42.19531 34056 ft 407 kts 290°
2026-04-29 11:48 27.18366 42.14060 34048 ft 408 kts 290°
2026-04-29 11:49 27.21280 42.08578 34041 ft 407 kts 290°
2026-04-29 11:49 27.24162 42.03137 34038 ft 407 kts 290°
2026-04-29 11:50 27.27073 41.97629 34085 ft 407 kts 290°
2026-04-29 11:50 27.29950 41.92168 34038 ft 406 kts 290°
2026-04-29 11:51 27.32808 41.86741 34039 ft 406 kts 290°
2026-04-29 11:51 27.35690 41.81265 34035 ft 407 kts 290°
2026-04-29 11:52 27.38575 41.75780 34054 ft 407 kts 290°
2026-04-29 11:52 27.41463 41.70292 34047 ft 408 kts 291°
2026-04-29 11:53 27.43180 41.67689 34036 ft 422 kts 301°
2026-04-29 11:53 27.45324 41.65356 34035 ft 431 kts 306°
2026-04-29 11:53 27.49767 41.60790 34044 ft 432 kts 306°
2026-04-29 11:54 27.54173 41.56250 34034 ft 432 kts 306°
2026-04-29 11:54 27.58611 41.51668 34056 ft 431 kts 306°
2026-04-29 11:55 27.63027 41.47088 34050 ft 431 kts 306°
2026-04-29 11:55 27.67435 41.42508 34051 ft 430 kts 306°
2026-04-29 11:56 27.71854 41.37926 34068 ft 430 kts 306°
2026-04-29 11:56 27.76240 41.33370 34061 ft 428 kts 306°
2026-04-29 11:57 27.80617 41.28806 34059 ft 428 kts 306°
2026-04-29 11:57 27.84990 41.24248 34056 ft 428 kts 306°
2026-04-29 11:58 27.89345 41.19706 34054 ft 428 kts 306°
2026-04-29 11:58 27.93714 41.15140 34054 ft 428 kts 306°
2026-04-29 11:59 27.98080 41.10576 34071 ft 428 kts 307°
2026-04-29 11:59 28.02465 41.05993 34063 ft 428 kts 307°
2026-04-29 12:00 28.06839 41.01417 34100 ft 428 kts 308°
2026-04-29 12:00 28.11206 40.96833 34073 ft 428 kts 307°
2026-04-29 12:01 28.15575 40.92238 34064 ft 428 kts 307°
2026-04-29 12:01 28.19949 40.87654 34079 ft 428 kts 308°
2026-04-29 12:02 28.24323 40.83057 34072 ft 428 kts 308°
2026-04-29 12:02 28.28661 40.78477 34066 ft 428 kts 308°
2026-04-29 12:03 28.33034 40.73864 34066 ft 428 kts 308°
2026-04-29 12:03 28.37405 40.69249 34066 ft 428 kts 308°
2026-04-29 12:04 28.41767 40.64629 34064 ft 428 kts 308°
2026-04-29 12:04 28.46106 40.60026 34085 ft 429 kts 308°
2026-04-29 12:05 28.50478 40.55397 34078 ft 429 kts 308°
2026-04-29 12:05 28.54849 40.50764 34072 ft 429 kts 308°
2026-04-29 12:06 28.59219 40.46125 34094 ft 429 kts 309°
2026-04-29 12:06 28.63578 40.41488 34086 ft 429 kts 309°
2026-04-29 12:07 28.67934 40.36844 34076 ft 429 kts 309°
2026-04-29 12:07 28.72290 40.32198 34072 ft 429 kts 309°
2026-04-29 12:08 28.76642 40.27554 34070 ft 429 kts 309°
2026-04-29 12:08 28.80974 40.22919 34068 ft 428 kts 309°
2026-04-29 12:09 28.85311 40.18280 34066 ft 427 kts 309°
2026-04-29 12:09 28.89652 40.13633 34059 ft 428 kts 309°
2026-04-29 12:10 28.93262 40.09757 34065 ft 428 kts 309°
2026-04-29 12:10 28.97604 40.05103 34063 ft 428 kts 309°
2026-04-29 12:11 29.01941 40.00445 34084 ft 428 kts 309°
2026-04-29 12:11 29.06271 39.95775 34080 ft 427 kts 308°
2026-04-29 12:12 29.09620 39.90388 34075 ft 409 kts 289°
2026-04-29 12:12 29.10980 39.84225 34066 ft 400 kts 271°
2026-04-29 12:13 29.11026 39.77872 34078 ft 399 kts 269°
2026-04-29 12:13 29.11051 39.71521 34072 ft 400 kts 269°
2026-04-29 12:14 29.11074 39.65152 34068 ft 400 kts 269°
2026-04-29 12:14 29.11093 39.58781 34063 ft 400 kts 269°
2026-04-29 12:15 29.11106 39.52455 34073 ft 400 kts 269°
2026-04-29 12:15 29.11115 39.46095 34070 ft 399 kts 269°
2026-04-29 12:16 29.11125 39.39733 34066 ft 399 kts 269°
2026-04-29 12:16 29.11134 39.33381 34052 ft 399 kts 269°
2026-04-29 12:17 29.11138 39.27067 34058 ft 398 kts 269°
2026-04-29 12:17 29.11132 39.20736 34060 ft 398 kts 269°
2026-04-29 12:18 29.11121 39.14402 34060 ft 398 kts 269°
2026-04-29 12:18 29.11108 39.08063 34062 ft 398 kts 269°
2026-04-29 12:19 29.11106 39.01732 34062 ft 398 kts 269°
2026-04-29 12:19 29.11096 38.95448 34059 ft 398 kts 269°
2026-04-29 12:20 29.11081 38.89117 34070 ft 397 kts 269°
2026-04-29 12:20 29.11055 38.82791 34066 ft 398 kts 269°
2026-04-29 12:21 29.11015 38.76441 34057 ft 398 kts 269°
2026-04-29 12:21 29.10984 38.70114 34053 ft 398 kts 269°
2026-04-29 12:22 29.10963 38.63786 34046 ft 398 kts 269°
2026-04-29 12:22 29.10927 38.57495 34047 ft 397 kts 269°
2026-04-29 12:23 29.10883 38.51171 34046 ft 397 kts 269°
2026-04-29 12:23 29.10839 38.44855 34048 ft 397 kts 269°
2026-04-29 12:24 29.10793 38.38548 34048 ft 396 kts 269°
2026-04-29 12:24 29.10742 38.32241 34044 ft 396 kts 269°
2026-04-29 12:25 29.10684 38.25966 34039 ft 396 kts 269°
2026-04-29 12:26 29.10606 38.16500 34057 ft 396 kts 269°
2026-04-29 12:26 29.10541 38.10183 34048 ft 397 kts 269°
2026-04-29 12:27 29.10476 38.03905 34048 ft 397 kts 269°
2026-04-29 12:27 29.10410 37.97606 34013 ft 396 kts 269°
2026-04-29 12:28 29.10341 37.91288 34037 ft 396 kts 269°
2026-04-29 12:28 29.10275 37.85000 34039 ft 396 kts 269°
2026-04-29 12:29 29.10201 37.78709 34035 ft 395 kts 269°
2026-04-29 12:29 29.10123 37.72419 34034 ft 395 kts 269°
2026-04-29 12:30 29.10046 37.66126 34042 ft 395 kts 269°
2026-04-29 12:30 29.09967 37.59876 34040 ft 395 kts 269°
2026-04-29 12:31 29.09872 37.53574 34038 ft 395 kts 269°
2026-04-29 12:31 29.09786 37.47281 34045 ft 395 kts 270°
2026-04-29 12:32 29.09747 37.40995 34043 ft 395 kts 270°
2026-04-29 12:32 29.09714 37.34739 34047 ft 395 kts 270°
2026-04-29 12:33 29.09668 37.28456 34023 ft 394 kts 269°
2026-04-29 12:33 29.09611 37.22181 34044 ft 394 kts 269°
2026-04-29 12:34 29.09556 37.15917 34039 ft 393 kts 270°
2026-04-29 12:34 29.09496 37.09660 34034 ft 393 kts 269°
2026-04-29 12:35 29.09430 37.03405 34032 ft 393 kts 269°
2026-04-29 12:35 29.09368 36.97155 34034 ft 393 kts 269°
2026-04-29 12:36 29.09304 36.90897 34017 ft 394 kts 269°
2026-04-29 12:36 29.09234 36.84634 34017 ft 394 kts 269°
2026-04-29 12:37 29.09154 36.78403 34015 ft 394 kts 269°
2026-04-29 12:37 29.09079 36.72133 34008 ft 395 kts 269°
2026-04-29 12:38 29.09003 36.65852 34010 ft 395 kts 269°
2026-04-29 12:38 29.08912 36.59562 33980 ft 395 kts 269°
2026-04-29 12:39 29.08822 36.53286 33988 ft 394 kts 269°
2026-04-29 12:39 29.08735 36.47009 33996 ft 394 kts 269°
2026-04-29 12:40 29.08589 36.40731 33985 ft 395 kts 269°
2026-04-29 12:40 29.08405 36.34485 33984 ft 395 kts 269°
2026-04-29 12:41 29.08216 36.28207 33981 ft 395 kts 269°
2026-04-29 12:41 29.08039 36.21917 33978 ft 396 kts 269°
2026-04-29 12:42 29.07865 36.15601 33974 ft 397 kts 269°
2026-04-29 12:42 29.07681 36.09322 33965 ft 398 kts 269°
2026-04-29 12:43 29.07495 36.02999 33972 ft 398 kts 269°
2026-04-29 12:43 29.07311 35.96660 33978 ft 398 kts 269°
2026-04-29 12:44 29.07117 35.90320 33958 ft 398 kts 268°
2026-04-29 12:44 29.06919 35.84003 33972 ft 397 kts 268°
2026-04-29 12:45 29.06720 35.77724 33977 ft 397 kts 268°
2026-04-29 12:45 29.06519 35.71408 33993 ft 397 kts 269°
2026-04-29 12:46 29.06320 35.65101 33989 ft 397 kts 269°
2026-04-29 12:46 29.06112 35.58773 33987 ft 398 kts 269°
2026-04-29 12:47 29.05908 35.52459 33987 ft 398 kts 269°
2026-04-29 12:47 29.05698 35.46138 33992 ft 398 kts 269°
2026-04-29 12:48 29.05476 35.39812 33987 ft 398 kts 269°
2026-04-29 12:48 29.05261 35.33490 33983 ft 398 kts 269°
2026-04-29 12:49 29.05039 35.27164 33975 ft 398 kts 269°
2026-04-29 12:49 29.04813 35.20878 33948 ft 398 kts 269°
2026-04-29 12:50 29.04590 35.14558 33955 ft 398 kts 269°
2026-04-29 12:50 29.04361 35.08240 33954 ft 398 kts 269°
2026-04-29 12:51 29.04127 35.01920 33948 ft 398 kts 269°
2026-04-29 12:51 29.03933 34.96662 33952 ft 398 kts 269°
2026-04-29 12:52 29.03692 34.90316 33942 ft 399 kts 269°
2026-04-29 12:52 29.03447 34.83977 33942 ft 399 kts 269°
2026-04-29 12:53 29.03305 34.77636 33941 ft 399 kts 270°
2026-04-29 12:53 29.03250 34.71289 33946 ft 399 kts 271°
2026-04-29 12:54 29.03856 34.65048 33939 ft 399 kts 285°
2026-04-29 12:54 29.05633 34.58998 33944 ft 400 kts 287°
2026-04-29 12:55 29.07403 34.52958 33947 ft 401 kts 287°
2026-04-29 12:55 29.09166 34.46910 33966 ft 401 kts 287°
2026-04-29 12:56 29.10926 34.40853 33981 ft 401 kts 287°
2026-04-29 12:56 29.12690 34.34834 33979 ft 401 kts 288°
2026-04-29 12:57 29.14462 34.28775 33993 ft 402 kts 287°
2026-04-29 12:57 29.16221 34.22710 33992 ft 402 kts 287°
2026-04-29 12:58 29.17986 34.16631 33998 ft 402 kts 287°
2026-04-29 12:58 29.19754 34.10544 34004 ft 402 kts 287°
2026-04-29 12:59 29.21513 34.04467 34008 ft 402 kts 287°
2026-04-29 12:59 29.23272 33.98379 34008 ft 402 kts 287°
2026-04-29 13:00 29.25014 33.92331 34015 ft 402 kts 288°
2026-04-29 13:00 29.26763 33.86258 34016 ft 402 kts 288°
2026-04-29 13:01 29.28514 33.80181 34016 ft 401 kts 288°
2026-04-29 13:01 29.30259 33.74106 34014 ft 401 kts 287°
2026-04-29 13:02 29.31999 33.68021 34024 ft 401 kts 288°
2026-04-29 13:02 29.33727 33.61962 34021 ft 401 kts 288°
2026-04-29 13:03 29.35453 33.55888 34017 ft 400 kts 288°
2026-04-29 13:03 29.37182 33.49811 34019 ft 400 kts 288°
2026-04-29 13:04 29.38915 33.43737 34015 ft 400 kts 288°
2026-04-29 13:04 29.40623 33.37710 34013 ft 400 kts 287°
2026-04-29 13:05 29.42344 33.31634 34015 ft 400 kts 288°
2026-04-29 13:05 29.44063 33.25553 34015 ft 400 kts 287°
2026-04-29 13:06 29.45769 33.19476 34014 ft 400 kts 287°
2026-04-29 13:06 29.47474 33.13436 34017 ft 400 kts 288°
2026-04-29 13:07 29.49167 33.07367 34019 ft 399 kts 287°
2026-04-29 13:07 29.50866 33.01304 34021 ft 398 kts 288°
2026-04-29 13:08 29.52559 32.95243 34016 ft 398 kts 288°
2026-04-29 13:08 29.54258 32.89195 34014 ft 398 kts 288°
2026-04-29 13:09 29.55942 32.83140 34009 ft 398 kts 288°
2026-04-29 13:09 29.57621 32.77077 34013 ft 398 kts 288°
2026-04-29 13:10 29.59298 32.71049 34012 ft 398 kts 288°
2026-04-29 13:10 29.60910 32.64958 34014 ft 398 kts 285°
2026-04-29 13:11 29.62289 32.58793 34012 ft 398 kts 285°
2026-04-29 13:11 29.63628 32.52614 34018 ft 398 kts 285°
2026-04-29 13:12 29.64997 32.46495 34020 ft 397 kts 285°
2026-04-29 13:12 29.66391 32.40337 34024 ft 397 kts 285°
2026-04-29 13:13 29.67780 32.34188 34023 ft 397 kts 285°
2026-04-29 13:13 29.69158 32.28037 34040 ft 396 kts 285°
2026-04-29 13:14 29.70537 32.21900 34029 ft 396 kts 285°
2026-04-29 13:14 29.71915 32.15770 34034 ft 396 kts 286°
2026-04-29 13:15 29.73280 32.09669 34038 ft 396 kts 285°
2026-04-29 13:15 29.74645 32.03537 34043 ft 395 kts 286°
2026-04-29 13:16 29.76005 31.97423 34039 ft 394 kts 286°
2026-04-29 13:16 29.77357 31.91301 34037 ft 393 kts 286°
2026-04-29 13:17 29.79310 31.85453 34039 ft 392 kts 301°
2026-04-29 13:17 29.82500 31.80385 34044 ft 392 kts 305°
2026-04-29 13:18 29.85730 31.75336 34064 ft 391 kts 305°
2026-04-29 13:18 29.88951 31.70295 34067 ft 390 kts 305°
2026-04-29 13:19 29.92165 31.65264 34061 ft 389 kts 305°
2026-04-29 13:19 29.95406 31.60253 34057 ft 389 kts 305°
2026-04-29 13:20 29.98660 31.55250 34022 ft 389 kts 305°
2026-04-29 13:20 30.01898 31.50248 34023 ft 388 kts 305°
2026-04-29 13:21 30.05114 31.45255 34023 ft 387 kts 305°
2026-04-29 13:21 30.08319 31.40268 34023 ft 386 kts 305°
2026-04-29 13:22 30.12039 31.35848 34021 ft 388 kts 314°
2026-04-29 13:22 30.15992 31.31621 34043 ft 387 kts 314°
2026-04-29 13:23 30.19937 31.27379 34031 ft 387 kts 314°
2026-04-29 13:23 30.23882 31.23133 34044 ft 386 kts 314°
2026-04-29 13:24 30.27809 31.18902 34037 ft 385 kts 314°
2026-04-29 13:24 30.31740 31.14666 34036 ft 385 kts 314°
2026-04-29 13:25 30.35659 31.10438 34037 ft 384 kts 314°
2026-04-29 13:25 30.41527 31.04102 34035 ft 384 kts 314°
2026-04-29 13:26 30.45432 30.99871 34030 ft 384 kts 314°
2026-04-29 13:26 30.49335 30.95638 34063 ft 384 kts 313°
2026-04-29 13:27 30.53209 30.91446 34042 ft 382 kts 313°
2026-04-29 13:27 30.57102 30.87221 34040 ft 382 kts 313°
2026-04-29 13:28 30.60980 30.83003 34033 ft 382 kts 313°
2026-04-29 13:28 30.64849 30.78789 34030 ft 381 kts 313°
2026-04-29 13:29 30.68717 30.74570 34029 ft 381 kts 313°
2026-04-29 13:29 30.72590 30.70350 34028 ft 381 kts 313°
2026-04-29 13:30 30.76458 30.66132 34027 ft 381 kts 313°
2026-04-29 13:30 30.80301 30.61934 34030 ft 381 kts 313°
2026-04-29 13:31 30.84168 30.57700 34051 ft 381 kts 313°
2026-04-29 13:31 30.88025 30.53464 34043 ft 381 kts 313°
2026-04-29 13:32 30.91887 30.49228 34045 ft 381 kts 313°
2026-04-29 13:32 30.95096 30.45708 34042 ft 381 kts 313°
2026-04-29 13:33 30.98948 30.41471 34042 ft 381 kts 313°
2026-04-29 13:33 31.02801 30.37233 34045 ft 380 kts 313°
2026-04-29 13:34 31.06652 30.32985 34051 ft 380 kts 312°
2026-04-29 13:34 31.09689 30.28035 34053 ft 375 kts 294°
2026-04-29 13:35 31.11355 30.22299 34051 ft 376 kts 289°
2026-04-29 13:35 31.12941 30.16476 34055 ft 376 kts 289°
2026-04-29 13:36 31.14535 30.10650 34053 ft 376 kts 289°
2026-04-29 13:36 31.16112 30.04830 34064 ft 376 kts 289°
2026-04-29 13:37 31.17766 29.99078 34035 ft 375 kts 295°
2026-04-29 13:37 31.20856 29.94208 34039 ft 379 kts 315°
2026-04-29 13:38 31.25402 29.90938 34067 ft 387 kts 326°
2026-04-29 13:38 31.30159 29.87977 34057 ft 387 kts 326°
2026-04-29 13:39 31.34926 29.84998 34063 ft 387 kts 326°
2026-04-29 13:39 31.39679 29.82023 34057 ft 387 kts 325°
2026-04-29 13:40 31.44432 29.79042 34059 ft 387 kts 325°
2026-04-29 13:40 31.49178 29.76061 34065 ft 387 kts 325°
2026-04-29 13:41 31.53929 29.73072 34082 ft 387 kts 325°
2026-04-29 13:41 31.58680 29.70085 34074 ft 387 kts 325°
2026-04-29 13:42 31.63429 29.67098 34065 ft 387 kts 325°
2026-04-29 13:42 31.68143 29.64122 34063 ft 387 kts 325°
2026-04-29 13:43 31.72894 29.61119 34065 ft 387 kts 325°
2026-04-29 13:43 31.77642 29.58119 34061 ft 387 kts 325°
2026-04-29 13:44 31.82390 29.55115 34092 ft 387 kts 325°
2026-04-29 13:44 31.87139 29.52106 34076 ft 388 kts 325°
2026-04-29 13:45 31.91887 29.49090 34070 ft 388 kts 325°
2026-04-29 13:45 31.96639 29.46066 34067 ft 388 kts 325°
2026-04-29 13:46 32.01388 29.43053 34065 ft 388 kts 325°
2026-04-29 13:46 32.06118 29.40047 34063 ft 388 kts 325°
2026-04-29 13:47 32.10861 29.37020 34081 ft 388 kts 325°
2026-04-29 13:47 32.15618 29.33983 34063 ft 389 kts 325°
2026-04-29 13:48 32.20378 29.30939 34059 ft 389 kts 325°
2026-04-29 13:48 32.25121 29.27914 34056 ft 390 kts 325°
2026-04-29 13:49 32.29893 29.24867 34055 ft 390 kts 325°
2026-04-29 13:49 32.34675 29.21801 34053 ft 390 kts 325°
2026-04-29 13:50 32.39438 29.18731 34055 ft 390 kts 325°
2026-04-29 13:50 32.44198 29.15650 34056 ft 390 kts 325°
2026-04-29 13:51 32.48965 29.12575 34057 ft 390 kts 325°
2026-04-29 13:51 32.53699 29.09524 34057 ft 390 kts 325°
2026-04-29 13:52 32.58466 29.06446 34060 ft 390 kts 325°
2026-04-29 13:52 32.63227 29.03367 34060 ft 390 kts 325°
2026-04-29 13:53 32.68002 29.00280 34079 ft 390 kts 325°
2026-04-29 13:53 32.72775 28.97191 34064 ft 391 kts 325°
2026-04-29 13:54 32.77556 28.94092 34057 ft 392 kts 325°
2026-04-29 13:54 32.82340 28.90984 34054 ft 392 kts 325°
2026-04-29 13:55 32.87128 28.87867 34050 ft 392 kts 325°
2026-04-29 13:55 32.91919 28.84744 34051 ft 392 kts 325°
2026-04-29 13:56 32.96721 28.81621 34075 ft 393 kts 325°
2026-04-29 13:56 33.01491 28.78503 34061 ft 393 kts 325°
2026-04-29 13:57 33.06290 28.75353 34053 ft 394 kts 325°
2026-04-29 13:57 33.10286 28.72733 34057 ft 394 kts 325°
2026-04-29 13:58 33.15909 28.69055 34052 ft 394 kts 325°
2026-04-29 13:58 33.20728 28.65904 34055 ft 394 kts 325°
2026-04-29 13:59 33.25501 28.62764 34071 ft 395 kts 325°
2026-04-29 13:59 33.30320 28.59586 34062 ft 395 kts 325°
2026-04-29 14:00 33.35150 28.56406 34057 ft 395 kts 325°
2026-04-29 14:00 33.39971 28.53232 34057 ft 396 kts 325°
2026-04-29 14:01 33.44772 28.50066 34055 ft 396 kts 325°
2026-04-29 14:01 33.49600 28.46878 34054 ft 396 kts 325°
2026-04-29 14:02 33.54423 28.43683 34060 ft 397 kts 325°
2026-04-29 14:02 33.59268 28.40465 34036 ft 398 kts 325°
2026-04-29 14:03 33.64125 28.37240 34032 ft 399 kts 325°
2026-04-29 14:03 33.68988 28.34003 34034 ft 400 kts 325°
2026-04-29 14:04 33.73858 28.30761 34034 ft 400 kts 325°
2026-04-29 14:04 33.78735 28.27519 34034 ft 401 kts 325°
2026-04-29 14:05 33.83668 28.24350 34036 ft 404 kts 328°
2026-04-29 14:05 33.88708 28.21370 34024 ft 406 kts 329°
2026-04-29 14:06 33.93803 28.18392 34022 ft 407 kts 328°
2026-04-29 14:06 33.98888 28.15350 34025 ft 408 kts 328°
2026-04-29 14:07 34.03940 28.12301 34026 ft 408 kts 328°
2026-04-29 14:07 34.09041 28.09227 34039 ft 410 kts 329°
2026-04-29 14:08 34.14159 28.06136 34023 ft 412 kts 328°
2026-04-29 14:08 34.19285 28.03032 34016 ft 413 kts 328°
2026-04-29 14:09 34.24399 27.99933 34014 ft 414 kts 328°
2026-04-29 14:09 34.29546 27.96808 34026 ft 414 kts 328°
2026-04-29 14:10 34.34703 27.93685 34046 ft 415 kts 329°
2026-04-29 14:10 34.39880 27.90546 34025 ft 416 kts 329°
2026-04-29 14:11 34.45072 27.87387 34022 ft 417 kts 329°
2026-04-29 14:11 34.50265 27.84223 34030 ft 418 kts 329°
2026-04-29 14:12 34.55464 27.81044 34028 ft 418 kts 329°
2026-04-29 14:12 34.59788 27.78392 34022 ft 419 kts 329°
2026-04-29 14:13 34.65000 27.75207 34029 ft 420 kts 329°
2026-04-29 14:13 34.70232 27.72004 34015 ft 421 kts 329°
2026-04-29 14:14 34.75468 27.68792 34066 ft 422 kts 329°
2026-04-29 14:14 34.78092 27.67179 34269 ft 422 kts 329°
2026-04-29 14:14 34.80712 27.65568 34477 ft 421 kts 329°
2026-04-29 14:15 34.83328 27.63961 34682 ft 421 kts 329°
2026-04-29 14:15 34.85942 27.62352 34886 ft 421 kts 329°
2026-04-29 14:15 34.88554 27.60742 35098 ft 421 kts 329°
2026-04-29 14:15 34.91139 27.59145 35218 ft 423 kts 329°